Regional Weather Roundup
Issued by NWS Boston, MA

Home | Current Version | Previous Version | Text Only | Print | Product List | Glossary On
Versions: 1 2 3 4 5 6 7 8 9 10 11 12 13 14 15 16 17 18 19 20 21 22 23 24 25 26 27 28 29 30 31 32 33 34 35 36 37 38 39 40 41 42 43 44 45 46 47 48 49 50
203
ASUS41 KBOX 250110
RWRBOX

REGIONAL WEATHER ROUNDUP
NATIONAL WEATHER SERVICE TAUNTON MA
800 PM EST TUE JAN 24 2017

NOTE:  "FAIR" INDICATES FEW OR NO CLOUDS BELOW 12,000 FEET WITH NO
SIGNIFICANT WEATHER AND/OR OBSTRUCTIONS TO VISIBILITY.

MAZALL-250200-
EASTERN MASSACHUSETTS

CITY           SKY/WX    TMP DP  RH WIND       PRES   REMARKS
BOSTON         DRIZZLE   35  34  96 N14       29.29F WCI  26
BEVERLY        CLOUDY    35  35 100 N14G23    29.28F WCI  26
LAWRENCE       LGT SNOW  34  33  96 N13G21    29.35R FOG     WCI  25
BEDFORD        CLOUDY    34  31  88 N10       29.31F WCI  26
BLUE HILL        N/A     32  32 100 N16G28    29.25S WCI  21
NORWOOD        CLOUDY    36  34  92 N10G17    29.29F WCI  28
MARSHFIELD     LGT RAIN  39  39 100 N14G28    29.24S WCI  31
PLYMOUTH       CLOUDY    39  37  92 N17G26    29.23S FOG     WCI  30
TAUNTON        CLOUDY    38  35  89 N15G23    29.25S WCI  29
NEW BEDFORD    CLOUDY    40  37  89 N14G25    29.21R
$$

MAZALL-250200-
CAPE COD AND THE ISLANDS

CITY           SKY/WX    TMP DP  RH WIND       PRES   REMARKS
FALMOUTH       LGT RAIN  41  41 100 MISG      29.18S
HYANNIS        LGT RAIN  44  42  93 N16G28    29.15F FOG
CHATHAM        CLOUDY    50  49  96 CALM      29.17S FOG
PROVINCETOWN   LGT RAIN  45  44  97 N15       29.19S FOG
NANTUCKET      FOG       49  49 100 CALM      29.14S VSB 3/4
MARTHAS VNYRD  RAIN      45  43  93 N15G22    29.18R FOG
$$

MAZALL-250200-
CENTRAL AND WESTERN MASSACHUSETTS

CITY           SKY/WX    TMP DP  RH WIND       PRES   REMARKS
WORCESTER      CLOUDY    32  29  88 N16G24    29.29S WCI  21
FITCHBURG      NOT AVBL
ORANGE         LGT RAIN  33  33 100 NW10      29.36S WCI  25
SPRINGFIELD    LGTSLEET  35  33  93 N8        29.35S FOG     WCI  28
WESTFIELD      HVY RAIN  35  34  96 N8        29.37S FOG     WCI  29
NORTH ADAMS    LGT SNOW  31  29  92 W10       29.44S FOG     WCI  22
PITTSFIELD     FRZ RAIN  32  28  85 NW14G21   29.39R WCI  22
$$

RIZALL-250200-
RHODE ISLAND

CITY           SKY/WX    TMP DP  RH WIND       PRES   REMARKS
PROVIDENCE     CLOUDY    37  33  85 N18G26    29.26R WCI  27
NEWPORT        CLOUDY    38  38 100 N18G28    29.21R WCI  28
SMITHFIELD     CLOUDY    34  32  92 N17G29    29.26S WCI  23
WESTERLY       LGT SNOW  38  34  85 N17G26    29.25S FOG     WCI  28
$$

CTZALL-250200-
CONNECTICUT

CITY           SKY/WX    TMP DP  RH WIND       PRES   REMARKS
BRADLEY INTL   RAIN      35  33  92 N9        29.37R FOG     WCI  28
HARTFORD       LGT SNOW  36  33  89 N10       29.37R FOG     WCI  28
BRIDGEPORT     LGT RAIN  39  34  82 N16G25    29.35S WCI  30
DANBURY        CLOUDY    36  32  85 N7        29.40R WCI  30
GROTON         LGT RAIN  37  37 100 N18G28    29.26R WCI  27
NEW HAVEN      CLOUDY    39  34  82 N15G25    29.33S WCI  31
CHESTER        MIX PCPN  36  34  93 N18G31    29.30R WCI  25
MERIDEN        LGT RAIN  38  33  82 NW13      29.36R WCI  30
WILLIMANTIC    LGT RAIN  38  35  89 N8        29.32S
OXFORD         CLOUDY    36  30  80 N14       29.36S WCI  27
$$

MEZ002-015-021-024-NHZ003-005-008-011-012-014-VTZ005-008-250200-
NORTHERN NEW ENGLAND

CITY           SKY/WX    TMP DP  RH WIND       PRES   REMARKS
PORTLAND ME    LGT RAIN  33  31  92 N15       29.33F WCI  23
BANGOR ME      LGT RAIN  34  33  96 NE18G24   29.42F WCI  23
CONCORD NH     CLOUDY    35  30  82 N8        29.36F WCI  29
MANCHESTER NH  NOT AVBL
NASHUA NH      NOT AVBL
PORTSMOUTH NH  DRIZZLE   34  32  92 N15G23    29.31F FOG     WCI  24
JAFFREY NH     NOT AVBL
KEENE NH       NOT AVBL
BURLINGTON VT  CLOUDY    28  26  92 NW13      29.53R FOG     WCI  17
MT. WASHINGTON FRZ RAIN  25  25 100 E24         N/A  VSB 1/8 WCI   9
$$

NYZ052-076-250200-
EASTERN NEW YORK

CITY           SKY/WX    TMP DP  RH WIND       PRES   REMARKS
ALBANY         LGT SNOW  34  31  88 N6        29.49S FOG     WCI  29
NEW YORK CITY  LGT RAIN  40  35  83 NW17G23   29.41R WCI  31
$$

ANZALL-250200-
MARINE OBSERVATIONS

STATION/POSITION TIME  TEMP    WIND        PRES    VSBY  WAVE
                       AIR SEA DIR/SP/G                  HT/PER
                 (UTC) (F)     (DEG/KT/KT) (MB)    (MI)  (FT/S)
BOSTON BUOY      2350   41 45   10/ 29/ 45  988.6         14/12
BUZZARDS BAY     0000   43     360/ 28/ 30  987.6F
NANTUCKET SOUND  2350   46 45  350/ 12/ 14  986.9          2/ 5
MASS BAY-STELLWA 0004   41 45  360/ 27/ 33  989.7F  1 1/8 11/10
ISLE OF SHOALS   0000   36     360/ 27/ 30  991.8F
S OF BLOCK IS    0055      46                N/A          10/11
$$

......................KEY.........................
  SKY/WX - SKY CONDITION/PRESENT WEATHER
  TMP    - TEMPERATURE IN FAHRENHEIT
  DWPT   - DEWPOINT IN FAHRENHEIT
  RH     - RELATIVE HUMIDITY IN PERCENT
  WIND   - DIRECTION AND SPEED IN MPH
  PRES   - MEAN SEA LEVEL PRESSURE IN INCHES OF HG
  WCI    - WIND CHILL INDEX
  VSB    - VISIBILITY IN MILES
  HX     - HEAT INDEX
  TC     - TEMPERATURE IN CELSIUS
  VRB    - VARIABLE WIND DIRECTION
  N/A    - NOT AVAILABLE




USA.gov is the U.S. government's official web portal to all federal, state and local government web resources and services.